owner,sensor,date,latitude,longitude,vertical_datum,sea_water_practical_salinity,qcFlag 
SCCF RECON,ioos:station:SCCF:12:1,2008-01-01T05:00:00Z,26.4966,-82.1479,2.12,35.65,1111122 
SCCF RECON,ioos:station:SCCF:12:1,2008-01-01T06:00:00Z,26.4966,-82.1479,2.06,35.64,1111122 
SCCF RECON,ioos:station:SCCF:12:1,2008-01-01T07:00:00Z,26.4966,-82.1479,2.009,35.54,1111122 
SCCF RECON,ioos:station:SCCF:12:1,2008-01-01T09:00:00Z,26.4966,-82.1479,2.034,35.58,1111122 
SCCF RECON,ioos:station:SCCF:12:1,2008-01-01T10:00:00Z,26.4966,-82.1479,2.11,35.6,1111122 
SCCF RECON,ioos:station:SCCF:12:1,2008-01-01T12:00:00Z,26.4966,-82.1479,2.24,35.59,1111122 
SCCF RECON,ioos:station:SCCF:12:1,2008-01-01T13:00:00Z,26.4966,-82.1479,2.29,35.59,1111122 
SCCF RECON,ioos:station:SCCF:12:1,2008-01-01T14:00:00Z,26.4966,-82.1479,2.34,35.55,1111122 
SCCF RECON,ioos:station:SCCF:12:1,2008-01-01T15:00:00Z,26.4966,-82.1479,2.244,35.55,1111122 
SCCF RECON,ioos:station:SCCF:12:1,2008-01-01T16:00:00Z,26.4966,-82.1479,2.17,35.51,1111122 
SCCF RECON,ioos:station:SCCF:12:1,2008-01-01T17:00:00Z,26.4966,-82.1479,2.1,35.5,1111122 
SCCF RECON,ioos:station:SCCF:12:1,2008-01-01T18:00:00Z,26.4966,-82.1479,2.04,35.51,1111122 
SCCF RECON,ioos:station:SCCF:12:1,2008-01-01T19:00:00Z,26.4966,-82.1479,2.001,35.45,1111122 
SCCF RECON,ioos:station:SCCF:12:1,2008-01-01T20:00:00Z,26.4966,-82.1479,2.046,35.35,1111122 
SCCF RECON,ioos:station:SCCF:12:1,2008-01-01T21:00:00Z,26.4966,-82.1479,2.148,35.41,1111122 
SCCF RECON,ioos:station:SCCF:12:1,2008-01-01T23:00:00Z,26.4966,-82.1479,2.295,35.32,1111122 
SCCF RECON,ioos:station:SCCF:12:1,2008-01-02T00:00:00Z,26.4966,-82.1479,2.273,35.19,1111122 
SCCF RECON,ioos:station:SCCF:12:1,2008-01-02T01:00:00Z,26.4966,-82.1479,2.213,35.07,1111122 
SCCF RECON,ioos:station:SCCF:12:1,2008-01-02T02:00:00Z,26.4966,-82.1479,2.126,34.91,1111122 
SCCF RECON,ioos:station:SCCF:12:1,2008-01-02T03:00:00Z,26.4966,-82.1479,2.057,34.78,1111122 
SCCF RECON,ioos:station:SCCF:12:1,2008-01-02T04:00:00Z,26.4966,-82.1479,2.019,34.95,1111122 
SCCF RECON,ioos:station:SCCF:12:1,2008-01-02T05:00:00Z,26.4966,-82.1479,1.988,35.11,1111122 
SCCF RECON,ioos:station:SCCF:12:1,2008-01-02T06:00:00Z,26.4966,-82.1479,1.94,35.06,1111122 
SCCF RECON,ioos:station:SCCF:12:1,2008-01-02T07:00:00Z,26.4966,-82.1479,1.849,35.16,1111122 
SCCF RECON,ioos:station:SCCF:12:1,2008-01-02T08:00:00Z,26.4966,-82.1479,1.76,35.16,1111122 
SCCF RECON,ioos:station:SCCF:12:1,2008-01-02T09:00:00Z,26.4966,-82.1479,1.679,35.24,1111122 
SCCF RECON,ioos:station:SCCF:12:1,2008-01-02T10:00:00Z,26.4966,-82.1479,1.582,35.53,1111122 
SCCF RECON,ioos:station:SCCF:12:1,2008-01-02T11:00:00Z,26.4966,-82.1479,1.532,35.45,1111122 
SCCF RECON,ioos:station:SCCF:12:1,2008-01-02T12:00:00Z,26.4966,-82.1479,1.553,35.27,1111122 
SCCF RECON,ioos:station:SCCF:12:1,2008-01-02T13:00:00Z,26.4966,-82.1479,1.66,35.35,1111122 
SCCF RECON,ioos:station:SCCF:12:1,2008-01-02T14:00:00Z,26.4966,-82.1479,1.726,35.4,1111122 
SCCF RECON,ioos:station:SCCF:12:1,2008-01-02T15:00:00Z,26.4966,-82.1479,1.776,35.47,1111122 
SCCF RECON,ioos:station:SCCF:12:1,2008-01-02T16:00:00Z,26.4966,-82.1479,1.794,35.55,1111122 
SCCF RECON,ioos:station:SCCF:12:1,2008-01-02T17:00:00Z,26.4966,-82.1479,1.803,35.58,1111122 
SCCF RECON,ioos:station:SCCF:12:1,2008-01-02T18:00:00Z,26.4966,-82.1479,1.807,35.58,1111122 
SCCF RECON,ioos:station:SCCF:12:1,2008-01-02T19:00:00Z,26.4966,-82.1479,1.841,35.75,1111122 
SCCF RECON,ioos:station:SCCF:12:1,2008-01-02T21:00:00Z,26.4966,-82.1479,1.919,35.83,1111122 
SCCF RECON,ioos:station:SCCF:12:1,2008-01-02T22:00:00Z,26.4966,-82.1479,1.984,36.12,1111122 
SCCF RECON,ioos:station:SCCF:12:1,2008-01-02T23:00:00Z,26.4966,-82.1479,2.069,36.54,1111122 
SCCF RECON,ioos:station:SCCF:12:1,2008-01-03T00:00:00Z,26.4966,-82.1479,2.155,36.55,1111122 
SCCF RECON,ioos:station:SCCF:12:1,2008-01-03T01:00:00Z,26.4966,-82.1479,2.187,36.33,1111122 
SCCF RECON,ioos:station:SCCF:12:1,2008-01-03T02:00:00Z,26.4966,-82.1479,2.158,36.34,1111122 
SCCF RECON,ioos:station:SCCF:12:1,2008-01-03T03:00:00Z,26.4966,-82.1479,2.093,36.3,1111122 
SCCF RECON,ioos:station:SCCF:12:1,2008-01-03T04:00:00Z,26.4966,-82.1479,2.035,36.29,1111122 
SCCF RECON,ioos:station:SCCF:12:1,2008-01-03T05:00:00Z,26.4966,-82.1479,1.976,36.29,1111122 
SCCF RECON,ioos:station:SCCF:12:1,2008-01-03T06:00:00Z,26.4966,-82.1479,1.9,36.3,1111122 
SCCF RECON,ioos:station:SCCF:12:1,2008-01-03T07:00:00Z,26.4966,-82.1479,1.794,36.34,1111122 
SCCF RECON,ioos:station:SCCF:12:1,2008-01-03T08:00:00Z,26.4966,-82.1479,1.68,36.46,1111122 
SCCF RECON,ioos:station:SCCF:12:1,2008-01-03T09:00:00Z,26.4966,-82.1479,1.579,36.4,1111122 
SCCF RECON,ioos:station:SCCF:12:1,2008-01-03T10:00:00Z,26.4966,-82.1479,1.498,36.51,1111122 
SCCF RECON,ioos:station:SCCF:12:1,2008-01-03T11:00:00Z,26.4966,-82.1479,1.455,36.58,1111122 
SCCF RECON,ioos:station:SCCF:12:1,2008-01-03T12:00:00Z,26.4966,-82.1479,1.467,36.44,1111122 
SCCF RECON,ioos:station:SCCF:12:1,2008-01-03T13:00:00Z,26.4966,-82.1479,1.544,36.45,1111122 
SCCF RECON,ioos:station:SCCF:12:1,2008-01-03T14:00:00Z,26.4966,-82.1479,1.642,36.5,1111122 
SCCF RECON,ioos:station:SCCF:12:1,2008-01-03T15:00:00Z,26.4966,-82.1479,1.694,36.59,1111122 
SCCF RECON,ioos:station:SCCF:12:1,2008-01-03T16:00:00Z,26.4966,-82.1479,1.74,36.62,1111122 
SCCF RECON,ioos:station:SCCF:12:1,2008-01-03T17:00:00Z,26.4966,-82.1479,1.76,36.61,1111122 
SCCF RECON,ioos:station:SCCF:12:1,2008-01-03T18:00:00Z,26.4966,-82.1479,1.794,36.63,1111122 
SCCF RECON,ioos:station:SCCF:12:1,2008-01-03T19:00:00Z,26.4966,-82.1479,1.834,36.62,1111122 
SCCF RECON,ioos:station:SCCF:12:1,2008-01-03T20:00:00Z,26.4966,-82.1479,1.885,36.64,1111122 
SCCF RECON,ioos:station:SCCF:12:1,2008-01-03T21:00:00Z,26.4966,-82.1479,1.947,36.6,1111122 
SCCF RECON,ioos:station:SCCF:12:1,2008-01-03T22:00:00Z,26.4966,-82.1479,2.026,36.54,1111122 
SCCF RECON,ioos:station:SCCF:12:1,2008-01-03T23:00:00Z,26.4966,-82.1479,2.104,36.51,1111122 
SCCF RECON,ioos:station:SCCF:12:1,2008-01-04T00:00:00Z,26.4966,-82.1479,2.172,36.43,1111122 
SCCF RECON,ioos:station:SCCF:12:1,2008-01-04T01:00:00Z,26.4966,-82.1479,2.215,36.31,1111122 
SCCF RECON,ioos:station:SCCF:12:1,2008-01-04T02:00:00Z,26.4966,-82.1479,2.207,36.43,1111122 
SCCF RECON,ioos:station:SCCF:12:1,2008-01-04T03:00:00Z,26.4966,-82.1479,2.17,36.57,1111122 
SCCF RECON,ioos:station:SCCF:12:1,2008-01-04T04:00:00Z,26.4966,-82.1479,2.097,36.65,1111122 
SCCF RECON,ioos:station:SCCF:12:1,2008-01-04T05:00:00Z,26.4966,-82.1479,2.015,36.64,1111122 
SCCF RECON,ioos:station:SCCF:12:1,2008-01-04T06:00:00Z,26.4966,-82.1479,1.92,36.63,1111122 
SCCF RECON,ioos:station:SCCF:12:1,2008-01-04T07:00:00Z,26.4966,-82.1479,1.817,36.6,1111122 
SCCF RECON,ioos:station:SCCF:12:1,2008-01-04T08:00:00Z,26.4966,-82.1479,1.719,36.55,1111122 
SCCF RECON,ioos:station:SCCF:12:1,2008-01-04T09:00:00Z,26.4966,-82.1479,1.635,36.34,1111122 
SCCF RECON,ioos:station:SCCF:12:1,2008-01-04T10:00:00Z,26.4966,-82.1479,1.583,36.22,1111122 
SCCF RECON,ioos:station:SCCF:12:1,2008-01-04T11:00:00Z,26.4966,-82.1479,1.578,36.25,1111122 
SCCF RECON,ioos:station:SCCF:12:1,2008-01-04T12:00:00Z,26.4966,-82.1479,1.645,36.39,1111122 
SCCF RECON,ioos:station:SCCF:12:1,2008-01-04T13:00:00Z,26.4966,-82.1479,1.753,36.45,1111122 
SCCF RECON,ioos:station:SCCF:12:1,2008-01-04T14:00:00Z,26.4966,-82.1479,1.864,36.42,1111122 
SCCF RECON,ioos:station:SCCF:12:1,2008-01-04T15:00:00Z,26.4966,-82.1479,1.949,36.35,1111122 
SCCF RECON,ioos:station:SCCF:12:1,2008-01-04T16:00:00Z,26.4966,-82.1479,2.019,36.46,1111122 
SCCF RECON,ioos:station:SCCF:12:1,2008-01-04T17:00:00Z,26.4966,-82.1479,2.07,36.41,1111122 
SCCF RECON,ioos:station:SCCF:12:1,2008-01-04T18:00:00Z,26.4966,-82.1479,2.094,36.5,1111122 
SCCF RECON,ioos:station:SCCF:12:1,2008-01-04T19:00:00Z,26.4966,-82.1479,2.1,36.52,1111122 
SCCF RECON,ioos:station:SCCF:12:1,2008-01-04T20:00:00Z,26.4966,-82.1479,2.098,36.38,1111122 
SCCF RECON,ioos:station:SCCF:12:1,2008-01-04T21:00:00Z,26.4966,-82.1479,2.132,36.38,1111122 
SCCF RECON,ioos:station:SCCF:12:1,2008-01-04T22:00:00Z,26.4966,-82.1479,2.19,36.42,1111122 
SCCF RECON,ioos:station:SCCF:12:1,2008-01-04T23:00:00Z,26.4966,-82.1479,2.256,36.48,1111122 
SCCF RECON,ioos:station:SCCF:12:1,2008-01-05T00:00:00Z,26.4966,-82.1479,2.33,36.43,1111122 
SCCF RECON,ioos:station:SCCF:12:1,2008-01-05T01:00:00Z,26.4966,-82.1479,2.38,36.4,1111122 
SCCF RECON,ioos:station:SCCF:12:1,2008-01-05T02:00:00Z,26.4966,-82.1479,2.382,36.39,1111122 
SCCF RECON,ioos:station:SCCF:12:1,2008-01-05T03:00:00Z,26.4966,-82.1479,2.34,36.37,1111122 
SCCF RECON,ioos:station:SCCF:12:1,2008-01-05T04:00:00Z,26.4966,-82.1479,2.28,36.37,1111122 
SCCF RECON,ioos:station:SCCF:12:1,2008-01-05T05:00:00Z,26.4966,-82.1479,2.209,36.37,1111122 
SCCF RECON,ioos:station:SCCF:12:1,2008-01-05T06:00:00Z,26.4966,-82.1479,2.102,36.38,1111122 
SCCF RECON,ioos:station:SCCF:12:1,2008-01-05T08:00:00Z,26.4966,-82.1479,1.88,36.42,1111122 
SCCF RECON,ioos:station:SCCF:12:1,2008-01-05T09:00:00Z,26.4966,-82.1479,1.775,36.33,1111122 
SCCF RECON,ioos:station:SCCF:12:1,2008-01-05T10:00:00Z,26.4966,-82.1479,1.684,36.18,1111122 
SCCF RECON,ioos:station:SCCF:12:1,2008-01-05T11:00:00Z,26.4966,-82.1479,1.633,36.08,1111122 
SCCF RECON,ioos:station:SCCF:12:1,2008-01-05T12:00:00Z,26.4966,-82.1479,1.667,36.02,1111122 
SCCF RECON,ioos:station:SCCF:12:1,2008-01-05T13:00:00Z,26.4966,-82.1479,1.796,36.2,1111122 
SCCF RECON,ioos:station:SCCF:12:1,2008-01-05T14:00:00Z,26.4966,-82.1479,1.91,36.24,1111122 
SCCF RECON,ioos:station:SCCF:12:1,2008-01-05T15:00:00Z,26.4966,-82.1479,2.01,36.19,1111122 
SCCF RECON,ioos:station:SCCF:12:1,2008-01-05T16:00:00Z,26.4966,-82.1479,2.1,36.23,1111122 
SCCF RECON,ioos:station:SCCF:12:1,2008-01-05T17:00:00Z,26.4966,-82.1479,2.18,36.23,1111122 
SCCF RECON,ioos:station:SCCF:12:1,2008-01-05T18:00:00Z,26.4966,-82.1479,2.217,36.15,1111122 
SCCF RECON,ioos:station:SCCF:12:1,2008-01-05T19:00:00Z,26.4966,-82.1479,2.228,36.26,1111122 
SCCF RECON,ioos:station:SCCF:12:1,2008-01-05T20:00:00Z,26.4966,-82.1479,2.21,36.34,1111122 
SCCF RECON,ioos:station:SCCF:12:1,2008-01-05T21:00:00Z,26.4966,-82.1479,2.189,36.34,1111122 
SCCF RECON,ioos:station:SCCF:12:1,2008-01-05T22:00:00Z,26.4966,-82.1479,2.2,36.34,1111122 
SCCF RECON,ioos:station:SCCF:12:1,2008-01-05T23:00:00Z,26.4966,-82.1479,2.25,36.28,1111122 
SCCF RECON,ioos:station:SCCF:12:1,2008-01-06T00:00:00Z,26.4966,-82.1479,2.33,36.24,1111122 
SCCF RECON,ioos:station:SCCF:12:1,2008-01-06T01:00:00Z,26.4966,-82.1479,2.4,36.23,1111122 
SCCF RECON,ioos:station:SCCF:12:1,2008-01-06T02:00:00Z,26.4966,-82.1479,2.47,36.21,1111122 
SCCF RECON,ioos:station:SCCF:12:1,2008-01-06T03:00:00Z,26.4966,-82.1479,2.51,36.2,1111122 
SCCF RECON,ioos:station:SCCF:12:1,2008-01-06T04:00:00Z,26.4966,-82.1479,2.48,36.17,1111122 
SCCF RECON,ioos:station:SCCF:12:1,2008-01-06T05:00:00Z,26.4966,-82.1479,2.41,36.16,1111122 
SCCF RECON,ioos:station:SCCF:12:1,2008-01-06T06:00:00Z,26.4966,-82.1479,2.3,36.16,1111122 
SCCF RECON,ioos:station:SCCF:12:1,2008-01-06T07:00:00Z,26.4966,-82.1479,2.18,36.16,1111122 
SCCF RECON,ioos:station:SCCF:12:1,2008-01-06T08:00:00Z,26.4966,-82.1479,2.05,36.13,1111122 
SCCF RECON,ioos:station:SCCF:12:1,2008-01-06T09:00:00Z,26.4966,-82.1479,1.93,36.13,1111122 
SCCF RECON,ioos:station:SCCF:12:1,2008-01-06T10:00:00Z,26.4966,-82.1479,1.82,36.11,1111122 
SCCF RECON,ioos:station:SCCF:12:1,2008-01-06T11:00:00Z,26.4966,-82.1479,1.733,36.03,1111122 
SCCF RECON,ioos:station:SCCF:12:1,2008-01-06T12:00:00Z,26.4966,-82.1479,1.69,36.07,1111122 
SCCF RECON,ioos:station:SCCF:12:1,2008-01-06T13:00:00Z,26.4966,-82.1479,1.75,36.07,1111122 
SCCF RECON,ioos:station:SCCF:12:1,2008-01-06T16:00:00Z,26.4966,-82.1479,2.11,36.11,1111122 
SCCF RECON,ioos:station:SCCF:12:1,2008-01-06T17:00:00Z,26.4966,-82.1479,2.183,36.07,1111122 
SCCF RECON,ioos:station:SCCF:12:1,2008-01-06T18:00:00Z,26.4966,-82.1479,2.223,36.05,1111122 
SCCF RECON,ioos:station:SCCF:12:1,2008-01-06T19:00:00Z,26.4966,-82.1479,2.23,36.05,1111122 
SCCF RECON,ioos:station:SCCF:12:1,2008-01-06T20:00:00Z,26.4966,-82.1479,2.211,36.16,1111122 
SCCF RECON,ioos:station:SCCF:12:1,2008-01-06T21:00:00Z,26.4966,-82.1479,2.2,36.21,1111122 
SCCF RECON,ioos:station:SCCF:12:1,2008-01-06T22:00:00Z,26.4966,-82.1479,2.21,36.24,1111122 
SCCF RECON,ioos:station:SCCF:12:1,2008-01-06T23:00:00Z,26.4966,-82.1479,2.23,36.24,1111122 
SCCF RECON,ioos:station:SCCF:12:1,2008-01-07T00:00:00Z,26.4966,-82.1479,2.29,36.25,1111122 
SCCF RECON,ioos:station:SCCF:12:1,2008-01-07T01:00:00Z,26.4966,-82.1479,2.36,36.15,1111122 
SCCF RECON,ioos:station:SCCF:12:1,2008-01-07T02:00:00Z,26.4966,-82.1479,2.43,36.11,1111122 
SCCF RECON,ioos:station:SCCF:12:1,2008-01-07T03:00:00Z,26.4966,-82.1479,2.51,36.07,1111122 
SCCF RECON,ioos:station:SCCF:12:1,2008-01-07T04:00:00Z,26.4966,-82.1479,2.54,36.06,1111122 
SCCF RECON,ioos:station:SCCF:12:1,2008-01-07T06:00:00Z,26.4966,-82.1479,2.43,36.11,1111122 
SCCF RECON,ioos:station:SCCF:12:1,2008-01-07T07:00:00Z,26.4966,-82.1479,2.32,36.12,1111122 
SCCF RECON,ioos:station:SCCF:12:1,2008-01-07T08:00:00Z,26.4966,-82.1479,2.19,36.12,1111122 
SCCF RECON,ioos:station:SCCF:12:1,2008-01-07T09:00:00Z,26.4966,-82.1479,2.06,36.1,1111122 
SCCF RECON,ioos:station:SCCF:12:1,2008-01-07T10:00:00Z,26.4966,-82.1479,1.93,36.08,1111122 
SCCF RECON,ioos:station:SCCF:12:1,2008-01-07T11:00:00Z,26.4966,-82.1479,1.82,36.06,1111122 
SCCF RECON,ioos:station:SCCF:12:1,2008-01-07T12:00:00Z,26.4966,-82.1479,1.736,36.05,1111122 
SCCF RECON,ioos:station:SCCF:12:1,2008-01-07T13:00:00Z,26.4966,-82.1479,1.72,36.04,1111122 
SCCF RECON,ioos:station:SCCF:12:1,2008-01-07T14:00:00Z,26.4966,-82.1479,1.843,36.06,1111122 
SCCF RECON,ioos:station:SCCF:12:1,2008-01-07T15:00:00Z,26.4966,-82.1479,1.992,36.09,1111122 
SCCF RECON,ioos:station:SCCF:12:1,2008-01-07T16:00:00Z,26.4966,-82.1479,2.111,36.11,1111122 
SCCF RECON,ioos:station:SCCF:12:1,2008-01-07T17:00:00Z,26.4966,-82.1479,2.22,36.07,1111122 
SCCF RECON,ioos:station:SCCF:12:1,2008-01-07T18:00:00Z,26.4966,-82.1479,2.277,36.04,1111122 
SCCF RECON,ioos:station:SCCF:12:1,2008-01-07T20:00:00Z,26.4966,-82.1479,2.3,36.14,1111122 
SCCF RECON,ioos:station:SCCF:12:1,2008-01-07T21:00:00Z,26.4966,-82.1479,2.259,36.08,1111122 
SCCF RECON,ioos:station:SCCF:12:1,2008-01-07T22:00:00Z,26.4966,-82.1479,2.21,36.04,1111122 
SCCF RECON,ioos:station:SCCF:12:1,2008-01-07T23:00:00Z,26.4966,-82.1479,2.21,35.99,1111122 
SCCF RECON,ioos:station:SCCF:12:1,2008-01-08T00:00:00Z,26.4966,-82.1479,2.26,35.99,1111122 
SCCF RECON,ioos:station:SCCF:12:1,2008-01-08T01:00:00Z,26.4966,-82.1479,2.34,36.04,1111122 
SCCF RECON,ioos:station:SCCF:12:1,2008-01-08T02:00:00Z,26.4966,-82.1479,2.43,36.09,1111122 
SCCF RECON,ioos:station:SCCF:12:1,2008-01-08T03:00:00Z,26.4966,-82.1479,2.52,36.1,1111122 
SCCF RECON,ioos:station:SCCF:12:1,2008-01-08T04:00:00Z,26.4966,-82.1479,2.57,36.1,1111122 
SCCF RECON,ioos:station:SCCF:12:1,2008-01-08T05:00:00Z,26.4966,-82.1479,2.56,36.1,1111122 
SCCF RECON,ioos:station:SCCF:12:1,2008-01-08T07:00:00Z,26.4966,-82.1479,2.393,36.1,1111122 
SCCF RECON,ioos:station:SCCF:12:1,2008-01-08T08:00:00Z,26.4966,-82.1479,2.26,36.08,1111122 
SCCF RECON,ioos:station:SCCF:12:1,2008-01-08T09:00:00Z,26.4966,-82.1479,2.12,36.08,1111122 
SCCF RECON,ioos:station:SCCF:12:1,2008-01-08T10:00:00Z,26.4966,-82.1479,1.99,36.07,1111122 
SCCF RECON,ioos:station:SCCF:12:1,2008-01-08T11:00:00Z,26.4966,-82.1479,1.867,36.05,1111122 
SCCF RECON,ioos:station:SCCF:12:1,2008-01-08T12:00:00Z,26.4966,-82.1479,1.75,36.05,1111122 
SCCF RECON,ioos:station:SCCF:12:1,2008-01-08T13:00:00Z,26.4966,-82.1479,1.67,36.05,1111122 
SCCF RECON,ioos:station:SCCF:12:1,2008-01-08T14:00:00Z,26.4966,-82.1479,1.68,36.06,1111122 
SCCF RECON,ioos:station:SCCF:12:1,2008-01-08T15:00:00Z,26.4966,-82.1479,1.834,36.08,1111122 
SCCF RECON,ioos:station:SCCF:12:1,2008-01-08T16:00:00Z,26.4966,-82.1479,1.983,36.09,1111122 
SCCF RECON,ioos:station:SCCF:12:1,2008-01-08T17:00:00Z,26.4966,-82.1479,2.101,36.07,1111122 
SCCF RECON,ioos:station:SCCF:12:1,2008-01-08T18:00:00Z,26.4966,-82.1479,2.188,36.06,1111122 
SCCF RECON,ioos:station:SCCF:12:1,2008-01-08T19:00:00Z,26.4966,-82.1479,2.239,36.03,1111122 
SCCF RECON,ioos:station:SCCF:12:1,2008-01-08T20:00:00Z,26.4966,-82.1479,2.243,35.93,1111122 
SCCF RECON,ioos:station:SCCF:12:1,2008-01-08T21:00:00Z,26.4966,-82.1479,2.226,35.86,1111122 
SCCF RECON,ioos:station:SCCF:12:1,2008-01-08T22:00:00Z,26.4966,-82.1479,2.191,35.76,1111122 
SCCF RECON,ioos:station:SCCF:12:1,2008-01-08T23:00:00Z,26.4966,-82.1479,2.16,35.73,1111122 
SCCF RECON,ioos:station:SCCF:12:1,2008-01-09T00:00:00Z,26.4966,-82.1479,2.18,35.7,1111122 
SCCF RECON,ioos:station:SCCF:12:1,2008-01-09T01:00:00Z,26.4966,-82.1479,2.25,35.76,1111122 
SCCF RECON,ioos:station:SCCF:12:1,2008-01-09T02:00:00Z,26.4966,-82.1479,2.33,35.91,1111122 
SCCF RECON,ioos:station:SCCF:12:1,2008-01-09T03:00:00Z,26.4966,-82.1479,2.43,35.97,1111122 
SCCF RECON,ioos:station:SCCF:12:1,2008-01-09T04:00:00Z,26.4966,-82.1479,2.52,36.0,1111122 
SCCF RECON,ioos:station:SCCF:12:1,2008-01-09T05:00:00Z,26.4966,-82.1479,2.57,36.03,1111122 
SCCF RECON,ioos:station:SCCF:12:1,2008-01-09T06:00:00Z,26.4966,-82.1479,2.56,36.02,1111122 
SCCF RECON,ioos:station:SCCF:12:1,2008-01-09T07:00:00Z,26.4966,-82.1479,2.488,35.97,1111122 
SCCF RECON,ioos:station:SCCF:12:1,2008-01-09T08:00:00Z,26.4966,-82.1479,2.374,35.93,1111122 
SCCF RECON,ioos:station:SCCF:12:1,2008-01-09T09:00:00Z,26.4966,-82.1479,2.23,35.83,1111122 
SCCF RECON,ioos:station:SCCF:12:1,2008-01-09T10:00:00Z,26.4966,-82.1479,2.08,35.89,1111122 
SCCF RECON,ioos:station:SCCF:12:1,2008-01-09T11:00:00Z,26.4966,-82.1479,1.95,35.87,1111122 
SCCF RECON,ioos:station:SCCF:12:1,2008-01-09T12:00:00Z,26.4966,-82.1479,1.828,35.9,1111122 
SCCF RECON,ioos:station:SCCF:12:1,2008-01-09T13:00:00Z,26.4966,-82.1479,1.727,35.91,1111122 
SCCF RECON,ioos:station:SCCF:12:1,2008-01-09T14:00:00Z,26.4966,-82.1479,1.67,35.98,1111122 
SCCF RECON,ioos:station:SCCF:12:1,2008-01-09T15:00:00Z,26.4966,-82.1479,1.74,35.94,1111122 
SCCF RECON,ioos:station:SCCF:12:1,2008-01-09T16:00:00Z,26.4966,-82.1479,1.905,35.97,1111122 
SCCF RECON,ioos:station:SCCF:12:1,2008-01-09T17:00:00Z,26.4966,-82.1479,2.041,35.95,1111122 
SCCF RECON,ioos:station:SCCF:12:1,2008-01-09T18:00:00Z,26.4966,-82.1479,2.147,35.93,1111122 
SCCF RECON,ioos:station:SCCF:12:1,2008-01-09T19:00:00Z,26.4966,-82.1479,2.213,35.95,1111122 
SCCF RECON,ioos:station:SCCF:12:1,2008-01-09T20:00:00Z,26.4966,-82.1479,2.25,35.88,1111122 
SCCF RECON,ioos:station:SCCF:12:1,2008-01-09T21:00:00Z,26.4966,-82.1479,2.211,35.77,1111122 
SCCF RECON,ioos:station:SCCF:12:1,2008-01-09T22:00:00Z,26.4966,-82.1479,2.14,35.68,1111122 
SCCF RECON,ioos:station:SCCF:12:1,2008-01-09T23:00:00Z,26.4966,-82.1479,2.088,35.72,1111122 
SCCF RECON,ioos:station:SCCF:12:1,2008-01-10T00:00:00Z,26.4966,-82.1479,2.06,35.76,1111122 
SCCF RECON,ioos:station:SCCF:12:1,2008-01-10T01:00:00Z,26.4966,-82.1479,2.076,35.69,1111122 
SCCF RECON,ioos:station:SCCF:12:1,2008-01-10T02:00:00Z,26.4966,-82.1479,2.13,35.74,1111122 
SCCF RECON,ioos:station:SCCF:12:1,2008-01-10T03:00:00Z,26.4966,-82.1479,2.236,35.83,1111122 
SCCF RECON,ioos:station:SCCF:12:1,2008-01-10T04:00:00Z,26.4966,-82.1479,2.36,35.88,1111122 
SCCF RECON,ioos:station:SCCF:12:1,2008-01-10T05:00:00Z,26.4966,-82.1479,2.46,35.93,1111122 
SCCF RECON,ioos:station:SCCF:12:1,2008-01-10T06:00:00Z,26.4966,-82.1479,2.5,35.93,1111122 
SCCF RECON,ioos:station:SCCF:12:1,2008-01-10T08:00:00Z,26.4966,-82.1479,2.36,35.86,1111122 
SCCF RECON,ioos:station:SCCF:12:1,2008-01-10T09:00:00Z,26.4966,-82.1479,2.23,35.84,1111122 
SCCF RECON,ioos:station:SCCF:12:1,2008-01-10T10:00:00Z,26.4966,-82.1479,2.09,35.84,1111122 
SCCF RECON,ioos:station:SCCF:12:1,2008-01-10T11:00:00Z,26.4966,-82.1479,1.96,35.85,1111122 
SCCF RECON,ioos:station:SCCF:12:1,2008-01-10T12:00:00Z,26.4966,-82.1479,1.84,35.85,1111122 
SCCF RECON,ioos:station:SCCF:12:1,2008-01-10T13:00:00Z,26.4966,-82.1479,1.73,35.9,1111122 
SCCF RECON,ioos:station:SCCF:12:1,2008-01-10T14:00:00Z,26.4966,-82.1479,1.65,35.91,1111122 
SCCF RECON,ioos:station:SCCF:12:1,2008-01-10T15:00:00Z,26.4966,-82.1479,1.65,35.89,1111122 
SCCF RECON,ioos:station:SCCF:12:1,2008-01-10T16:00:00Z,26.4966,-82.1479,1.782,35.86,1111122 
SCCF RECON,ioos:station:SCCF:12:1,2008-01-10T17:00:00Z,26.4966,-82.1479,1.933,35.89,1111122 
SCCF RECON,ioos:station:SCCF:12:1,2008-01-10T18:00:00Z,26.4966,-82.1479,2.05,35.81,1111122 
SCCF RECON,ioos:station:SCCF:12:1,2008-01-10T19:00:00Z,26.4966,-82.1479,2.139,35.87,1111122 
SCCF RECON,ioos:station:SCCF:12:1,2008-01-10T20:00:00Z,26.4966,-82.1479,2.185,35.8,1111122 
SCCF RECON,ioos:station:SCCF:12:1,2008-01-10T21:00:00Z,26.4966,-82.1479,2.183,35.65,1111122 
SCCF RECON,ioos:station:SCCF:12:1,2008-01-10T22:00:00Z,26.4966,-82.1479,2.138,35.47,1111122 
SCCF RECON,ioos:station:SCCF:12:1,2008-01-10T23:00:00Z,26.4966,-82.1479,2.07,35.46,1111122 
SCCF RECON,ioos:station:SCCF:12:1,2008-01-11T00:00:00Z,26.4966,-82.1479,2.02,35.44,1111122 
SCCF RECON,ioos:station:SCCF:12:1,2008-01-11T01:00:00Z,26.4966,-82.1479,2.01,35.4,1111122 
SCCF RECON,ioos:station:SCCF:12:1,2008-01-11T02:00:00Z,26.4966,-82.1479,2.05,35.47,1111122 
SCCF RECON,ioos:station:SCCF:12:1,2008-01-11T03:00:00Z,26.4966,-82.1479,2.14,35.62,1111122 
SCCF RECON,ioos:station:SCCF:12:1,2008-01-11T04:00:00Z,26.4966,-82.1479,2.27,35.67,1111122 
SCCF RECON,ioos:station:SCCF:12:1,2008-01-11T05:00:00Z,26.4966,-82.1479,2.39,35.69,1111122 
SCCF RECON,ioos:station:SCCF:12:1,2008-01-11T06:00:00Z,26.4966,-82.1479,2.45,35.7,1111122 
SCCF RECON,ioos:station:SCCF:12:1,2008-01-11T07:00:00Z,26.4966,-82.1479,2.45,35.67,1111122 
SCCF RECON,ioos:station:SCCF:12:1,2008-01-11T10:00:00Z,26.4966,-82.1479,2.2,35.61,1111122 
SCCF RECON,ioos:station:SCCF:12:1,2008-01-11T11:00:00Z,26.4966,-82.1479,2.07,35.64,1111122 
SCCF RECON,ioos:station:SCCF:12:1,2008-01-11T12:00:00Z,26.4966,-82.1479,1.94,35.66,1111122 
SCCF RECON,ioos:station:SCCF:12:1,2008-01-11T13:00:00Z,26.4966,-82.1479,1.83,35.65,1111122 
SCCF RECON,ioos:station:SCCF:12:1,2008-01-11T14:00:00Z,26.4966,-82.1479,1.73,35.6,1111122 
SCCF RECON,ioos:station:SCCF:12:1,2008-01-11T15:00:00Z,26.4966,-82.1479,1.679,35.69,1111122 
SCCF RECON,ioos:station:SCCF:12:1,2008-01-11T16:00:00Z,26.4966,-82.1479,1.754,35.59,1111122 
SCCF RECON,ioos:station:SCCF:12:1,2008-01-11T17:00:00Z,26.4966,-82.1479,1.912,35.61,1111122 
SCCF RECON,ioos:station:SCCF:12:1,2008-01-11T18:00:00Z,26.4966,-82.1479,2.035,35.52,1111122 
SCCF RECON,ioos:station:SCCF:12:1,2008-01-11T19:00:00Z,26.4966,-82.1479,2.131,35.55,1111122 
SCCF RECON,ioos:station:SCCF:12:1,2008-01-11T20:00:00Z,26.4966,-82.1479,2.197,35.49,1111122 
SCCF RECON,ioos:station:SCCF:12:1,2008-01-11T21:00:00Z,26.4966,-82.1479,2.23,35.3,1111122 
SCCF RECON,ioos:station:SCCF:12:1,2008-01-11T22:00:00Z,26.4966,-82.1479,2.212,35.14,1111122 
SCCF RECON,ioos:station:SCCF:12:1,2008-01-11T23:00:00Z,26.4966,-82.1479,2.14,35.12,1111122 
SCCF RECON,ioos:station:SCCF:12:1,2008-01-12T00:00:00Z,26.4966,-82.1479,2.06,35.09,1111122 
SCCF RECON,ioos:station:SCCF:12:1,2008-01-12T01:00:00Z,26.4966,-82.1479,2.0,35.01,1111122 
SCCF RECON,ioos:station:SCCF:12:1,2008-01-12T02:00:00Z,26.4966,-82.1479,1.96,35.01,1111122 
SCCF RECON,ioos:station:SCCF:12:1,2008-01-12T03:00:00Z,26.4966,-82.1479,1.98,35.06,1111122 
SCCF RECON,ioos:station:SCCF:12:1,2008-01-12T04:00:00Z,26.4966,-82.1479,2.07,35.1,1111122 
SCCF RECON,ioos:station:SCCF:12:1,2008-01-12T05:00:00Z,26.4966,-82.1479,2.22,35.15,1111122 
SCCF RECON,ioos:station:SCCF:12:1,2008-01-12T06:00:00Z,26.4966,-82.1479,2.34,35.17,1111122 
SCCF RECON,ioos:station:SCCF:12:1,2008-01-12T07:00:00Z,26.4966,-82.1479,2.4,35.18,1111122 
SCCF RECON,ioos:station:SCCF:12:1,2008-01-12T09:00:00Z,26.4966,-82.1479,2.35,35.1,1111122 
SCCF RECON,ioos:station:SCCF:12:1,2008-01-12T10:00:00Z,26.4966,-82.1479,2.26,35.26,1111122 
SCCF RECON,ioos:station:SCCF:12:1,2008-01-12T11:00:00Z,26.4966,-82.1479,2.14,35.18,1111122 
SCCF RECON,ioos:station:SCCF:12:1,2008-01-12T12:00:00Z,26.4966,-82.1479,2.016,35.24,1111122 
SCCF RECON,ioos:station:SCCF:12:1,2008-01-12T13:00:00Z,26.4966,-82.1479,1.9,35.39,1111122 